CAPE
2782 2053 2343 2776 2990 2891 2598 2470 2381 2423 2299 2254 2369 2196 1818 1559 1659 1716 1701 1779 1824 1837 1705 1423 1227 1055 882 584 446 338 350 412 270 60 28 16 33 132 143 101 105 52 20
2793 3115 3152 2807 2853 2878 3006 2947 2764 2476 2786 2434 2031 1604 1538 1691 1482 1586 1635 1715 1650 1614 1431 1332 1193 926 666 479 412 327 275 180 116 65 23 1 43 63 43 38 0 0 0
3209 3386 3317 3470 3169 2774 2569 2641 2488 2352 2260 2133 1941 1631 1533 1495 1650 1412 1401 1345 1260 1316 1259 1027 863 664 540 421 349 260 109 27 45 28 0 0 11 58 3 1 0 0 0
3538 3491 3224 3139 2934 2713 2345 2242 2384 2499 2464 2180 1954 1910 1724 1443 1266 1118 1149 1127 1073 1024 931 695 383 199 159 126 65 7 6 11 56 62 0 1 0 2 1 0 2 0 0
1471 3029 3055 2764 2723 2726 2511 2569 2809 2536 2363 2251 1766 1497 1427 1195 844 628 612 769 829 363 377 294 145 13 4 0 0 1 5 53 69 24 2 1 0 2 1 4 2 0 0
0 109 2321 3053 3018 2796 2318 2042 2160 2341 2182 1910 1239 750 467 665 612 516 586 469 542 502 275 23 0 0 0 1 7 31 29 17 13 6 2 0 1 0 2 1 0 0 0
0 0 1642 2408 2757 2207 2283 2452 2143 1820 1516 1162 823 58 300 481 696 457 248 388 541 385 62 0 0 8 18 18 9 21 71 58 12 0 25 8 1 1 1 2 2 1 0
1 1012 778 632 1623 1954 2165 2019 1906 1682 997 529 91 0 94 577 580 689 632 470 499 286 138 121 62 34 14 24 1 60 70 85 49 38 4 0 0 0 0 0 0 0 2
1330 1438 1681 1641 1534 1533 1279 1327 1413 1149 723 240 0 80 356 440 514 541 434 236 269 263 262 257 275 140 19 24 10 46 44 89 64 79 44 5 0 0 0 0 0 0 0
671 933 681 639 693 745 853 912 1159 950 430 3 7 0 15 142 348 455 404 169 146 195 271 238 188 86 2 8 23 4 3 14 20 37 90 29 1 0 1 5 5 0 0
269 245 442 591 559 641 840 1000 917 883 429 217 142 0 0 276 537 508 221 133 166 100 168 91 28 22 38 13 2 7 16 0 0 0 12 49 39 16 31 38 11 3 0
407 534 492 403 592 564 483 498 425 525 454 279 105 0 64 448 568 409 149 74 246 115 167 131 38 20 12 24 3 13 24 5 0 0 49 54 88 79 54 61 26 20 17
528 526 411 414 472 447 398 298 285 335 288 175 79 154 153 469 571 443 197 39 180 189 115 96 49 34 0 3 6 1 10 19 0 1 23 46 61 80 87 80 56 61 47
334 234 306 351 374 428 421 418 324 128 175 232 306 282 255 333 429 228 37 16 42 167 132 62 39 22 7 9 0 0 0 5 2 8 21 28 47 32 22 57 43 37 31
324 340 394 389 374 394 424 295 282 159 135 90 159 255 212 242 264 171 212 86 67 40 163 56 29 19 7 12 0 0 0 2 0 0 18 27 18 37 50 47 37 42 28
350 212 312 447 508 481 310 182 171 100 9 19 63 146 224 194 202 195 184 89 55 0 55 82 44 10 25 4 8 1 0 0 1 5 14 29 29 35 51 59 45 22 14
334 474 526 369 298 284 173 156 153 152 38 12 1 17 70 157 102 134 89 43 20 0 45 80 47 1 1 2 0 0 0 0 0 10 28 30 6 15 42 34 37 25 25
498 413 399 406 305 249 307 259 203 162 4 0 0 4 0 2 19 68 2 5 0 0 55 87 104 59 8 9 0 1 5 0 0 0 6 5 16 0 0 11 42 37 27
348 232 216 267 202 220 238 208 188 121 24 27 35 4 0 0 0 0 13 22 0 0 1 3 38 65 87 53 19 3 18 13 9 20 25 26 12 4 5 5 3 26 52
8 91 308 300 115 17 2 34 144 184 134 150 128 58 0 0 1 2 0 0 0 0 0 35 49 50 72 24 27 32 27 29 33 34 25 32 39 25 10 1 1 17 19
0 141 86 156 105 40 0 26 116 110 94 61 55 54 12 18 28 0 0 0 0 0 0 0 10 45 53 18 30 43 60 47 38 33 20 17 23 17 9 1 0 0 0
0 0 2 4 4 98 97 72 45 43 4 4 11 18 0 6 4 1 0 3 2 2 23 28 30 23 6 17 14 31 25 33 37 10 7 4 6 4 11 1 0 0 0
0 1 3 4 5 4 9 18 5 2 2 2 3 26 18 1 1 8 3 9 3 0 2 14 18 20 30 28 15 7 23 36 43 37 19 1 2 6 5 0 0 0 0
0 1 4 6 6 5 4 4 5 6 3 6 5 3 2 8 43 32 31 2 5 20 25 34 19 34 23 2 0 0 0 8 42 65 66 52 56 46 52 57 36 39 40
0 0 2 5 6 6 5 5 5 6 5 6 5 5 5 3 3 0 1 1 1 0 0 0 0 0 0 0 0 0 0 0 0 0 6 21 48 57 44 21 9 0 6
0 0 0 0 0 1 2 3 4 5 5 4 5 6 6 7 6 5 3 3 4 5 6 5 6 9 9 4 0 0 0 0 0 0 0 0 2 8 25 23 5 2 4
CIN
-201 -216 -207 -178 -141 -123 -111 -104 -101 -88 -82 -76 -50 -40 -41 -44 -45 -24 -15 -8 -6 -8 -9 -14 -16 -19 -27 -30 -39 -27 -31 -10 -1 -27 -45 -56 -48 -22 -31 -3 -3 -10 -38
-201 -160 -159 -167 -140 -123 -100 -85 -78 -78 -46 -42 -39 -65 -59 -30 -19 -19 -6 -4 -6 -4 -9 -6 -4 -16 -34 -56 -47 -25 -30 -29 -13 -15 -33 -27 -72 -40 -28 -6 -0 -0 -0
-145 -134 -115 -81 -93 -105 -93 -75 -73 -64 -60 -47 -44 -48 -38 -33 -11 -8 -13 -9 -8 -7 -1 -2 -8 -17 -22 -29 -21 -18 -19 -26 -27 -29 -2 -0 -74 -15 -4 -0 -0 -0 -0
-50 -49 -61 -59 -72 -74 -73 -71 -62 -49 -38 -46 -51 -37 -22 -29 -39 -22 -1 -7 -6 -3 -1 -4 -30 -49 -51 -47 -42 -25 -26 -29 -26 -0 -0 -0 -0 -0 -0 -0 -0 -0 -0
-140 -14 -42 -52 -63 -54 -53 -56 -34 -31 -33 -30 -24 -26 -41 -59 -71 -75 -54 -8 -10 -51 -35 -44 -71 -49 -39 -0 -0 -12 -69 -35 -14 -11 -2 -0 -0 -0 -0 -0 -0 -0 -0
-0 -53 -8 -22 -37 -36 -36 -43 -34 -24 -15 -8 -12 -10 -29 -105 -77 -59 -33 -40 -14 -5 -41 -81 -0 -0 -1 -23 -65 -62 -72 -93 -100 -55 -0 -0 -0 -0 -0 -0 -0 -0 -0
-0 -0 -61 -30 -23 -11 -11 -24 -19 -14 -9 -43 -75 -118 -39 -52 -49 -44 -92 -30 -3 -7 -98 -0 -0 -82 -79 -80 -112 -108 -89 -101 -90 -0 -89 -90 -0 -0 -0 -0 -0 -0 -0
-93 -32 -45 -40 -22 -24 -7 -5 -6 -13 -37 -90 -176 -0 -114 -38 -45 -3 -12 -31 -3 -12 -51 -57 -65 -64 -91 -90 -74 -65 -83 -119 -123 -116 -134 -45 -0 -0 -0 -0 -0 -0 -20
-58 -46 -36 -27 -39 -32 -31 -22 -12 -19 -38 -82 -0 -152 -17 -31 -31 -18 -28 -66 -20 -18 -41 -35 -28 -40 -104 -105 -103 -58 -72 -67 -105 -89 -98 -139 -0 -0 -0 -0 -0 -0 -1
-70 -47 -62 -56 -41 -43 -42 -36 -25 -36 -52 -12 -64 -0 -114 -89 -11 -34 -53 -86 -58 -29 -46 -32 -43 -65 -126 -121 -104 -114 -107 -75 -87 -76 -52 -80 -9 -0 -5 -75 -74 -0 -0
-99 -107 -78 -61 -53 -47 -23 -15 -20 -16 -40 -76 -130 -0 -0 -109 -33 -40 -111 -110 -90 -50 -39 -57 -88 -88 -81 -109 -138 -96 -68 -37 -0 -0 -17 -52 -48 -46 -35 -32 -41 -56 -0
-66 -42 -49 -69 -47 -50 -55 -55 -46 -31 -27 -40 -92 -0 -120 -71 -47 -70 -141 -138 -74 -67 -43 -55 -78 -95 -88 -88 -128 -90 -38 -18 -0 -0 -25 -33 -32 -28 -26 -32 -42 -44 -36
-33 -33 -49 -54 -50 -55 -54 -77 -46 -27 -26 -56 -90 -61 -69 -46 -27 -65 -130 -153 -81 -42 -56 -45 -53 -69 -11 -97 -84 -68 -41 -32 -0 -3 -25 -35 -43 -49 -53 -43 -29 -23 -15
-36 -59 -47 -38 -40 -47 -48 -36 -30 -40 -23 -43 -52 -47 -37 -24 -24 -103 -176 -168 -131 -27 -20 -30 -27 -35 -85 -53 -0 -0 -8 -47 -21 -32 -47 -49 -41 -46 -45 -41 -31 -15 -27
-34 -43 -32 -24 -26 -39 -32 -42 -36 -52 -22 -22 -49 -31 -31 -24 -28 -70 -90 -121 -116 -90 -23 -8 -2 -12 -36 -42 -0 -0 -0 -43 -5 -0 -37 -31 -33 -33 -37 -39 -31 -44 -27
-47 -52 -40 -20 -23 -18 -26 -81 -96 -80 -72 -62 -78 -62 -46 -41 -47 -53 -73 -127 -110 -0 -33 -7 -7 -10 -27 -58 -59 -51 -0 -0 -4 -31 -32 -20 -26 -27 -32 -37 -40 -32 -26
-45 -30 -8 -13 -28 -28 -36 -41 -54 -84 -154 -186 -56 -180 -99 -46 -63 -59 -96 -127 -136 -1 -53 -23 -10 -0 -0 -38 -0 -1 -0 -0 -0 -35 -35 -29 -27 -30 -35 -30 -26 -24 -24
-31 -27 -12 -8 -20 -28 -29 -23 -32 -34 -19 -0 -0 -69 -0 -103 -94 -88 -16 -54 -0 -0 -68 -39 -12 -16 -5 -50 -20 -1 -43 -0 -0 -0 -44 -14 -34 -0 -0 -26 -35 -27 -23
-22 -27 -26 -27 -35 -20 -21 -28 -29 -41 -42 -93 -106 -28 -0 -0 -0 -0 -167 -127 -0 -0 -0 -4 -55 -19 -6 -6 -24 -26 -43 -52 -62 -66 -55 -41 -23 -26 -15 -22 -22 -25 -23
-75 -67 -19 -26 -54 -100 -126 -77 -23 -13 -16 -24 -17 -47 -0 -0 -22 -26 -0 -0 -0 -0 -0 -45 -38 -27 -62 -27 -32 -40 -44 -47 -41 -28 -35 -44 -41 -25 -12 -5 -3 -20 -17
-0 -22 -34 -24 -31 -53 -2 -40 -16 -21 -8 -21 -24 -23 -70 -70 -50 -22 -0 -0 -0 -0 -0 -0 -30 -26 -30 -30 -32 -40 -22 -22 -35 -33 -45 -51 -45 -26 -26 -9 -0 -0 -0
-0 -0 -0 -0 -0 -28 -17 -3 -11 -7 -20 -36 -25 -19 -0 -44 -41 -10 -11 -74 -62 -20 -20 -28 -33 -27 -11 -25 -25 -23 -23 -32 -42 -50 -44 -25 -38 -23 -41 -40 -3 -0 -0
-0 -0 -0 -0 -0 -0 -11 -38 -16 -10 -19 -11 -50 -7 -10 -8 -18 -8 -0 -0 -37 -0 -10 -21 -16 -17 -38 -47 -86 -74 -34 -40 -38 -30 -25 -14 -22 -22 -29 -0 -0 -0 -0
-0 -0 -0 -0 -0 -0 -0 -0 -0 -0 -0 -0 -0 -0 -0 -0 -0 -1 -7 -0 -32 -38 -29 -24 -34 -51 -89 -141 -0 -7 -14 -183 -141 -115 -85 -42 -32 -48 -48 -46 -49 -44 -42
-0 -0 -0 -0 -0 -0 -0 -0 -0 -0 -0 -0 -0 -0 -0 -0 -0 -0 -0 -0 -0 -0 -0 -0 -0 -0 -0 -0 -0 -0 -0 -0 -0 -164 -119 -87 -76 -49 -39 -31 -63 -0 -60
-0 -0 -0 -0 -0 -0 -0 -0 -0 -0 -0 -0 -0 -0 -0 -0 -0 -0 -0 -0 -0 -0 -0 -0 -0 -0 -0 -0 -0 -0 -0 -0 -0 -0 -0 -0 -44 -54 -59 -31 -57 -30 -35
Wind_Speed
7 7 6 7 9 11 12 15 16 18 20 22 24 26 28 28 26 25 25 26 25 25 25 25 25 25 26 25 24 23 23 22 22 22 23 22 22 20 22 20 14 12 9
11 10 9 7 7 10 13 15 18 19 21 22 26 27 28 28 27 25 25 24 24 25 27 27 27 28 28 26 23 20 21 21 22 24 26 25 24 21 16 13 10 9 7
11 11 13 12 10 10 13 17 19 21 23 25 27 28 28 29 27 27 26 25 25 24 24 25 26 25 26 26 24 22 22 22 23 25 25 23 23 15 12 11 9 9 8
16 16 14 13 15 15 16 18 21 23 24 26 27 28 29 28 26 27 24 23 21 19 19 20 24 25 25 25 24 23 23 24 24 21 18 16 17 10 9 10 10 13 10
34 22 17 14 16 16 20 21 22 23 26 28 30 31 30 29 29 26 21 20 19 19 19 20 22 23 22 19 18 17 15 14 16 14 11 13 11 11 10 12 12 10 9
22 17 28 13 16 19 22 21 24 25 28 29 33 39 38 31 26 23 20 19 18 16 15 17 17 14 12 10 10 7 5 8 11 11 11 11 15 8 11 6 8 8 10
20 16 8 15 19 25 24 25 23 26 28 31 28 32 29 27 23 21 20 20 16 12 11 10 10 9 7 8 10 9 7 6 7 8 6 0 4 6 6 6 6 8 8
22 24 24 28 29 29 26 27 29 29 28 29 29 29 17 27 22 16 17 16 13 10 8 7 7 5 5 5 8 6 6 6 6 6 4 4 2 12 14 10 12 12 10
30 32 32 31 34 34 36 36 35 32 33 32 34 35 37 27 15 12 15 13 11 9 7 7 5 4 3 2 5 5 5 6 6 5 9 12 14 19 20 13 10 12 4
38 37 38 40 41 42 43 42 39 35 33 29 28 22 19 16 28 14 13 10 9 9 6 7 5 3 2 6 3 4 2 2 4 10 6 7 14 19 18 18 17 14 4
42 43 42 41 43 42 42 41 41 37 28 23 18 17 8 8 10 8 8 7 7 6 7 6 7 8 3 1 1 2 2 1 3 4 3 8 6 13 20 21 14 12 8
43 42 43 44 43 43 43 42 39 34 25 20 16 15 13 11 8 6 9 12 5 7 8 9 8 4 3 7 3 4 18 8 3 5 4 2 5 9 10 10 10 5 19
41 42 43 42 42 42 42 43 40 33 25 18 14 14 13 9 5 4 6 12 4 6 7 9 5 4 1 8 4 9 16 5 2 1 1 3 3 6 8 11 10 4 8
38 39 40 41 41 40 38 36 34 30 20 14 13 12 6 18 11 6 2 9 9 3 10 9 6 6 13 10 21 6 11 9 5 5 2 2 6 7 5 7 10 5 9
37 40 40 39 38 38 34 32 24 20 13 10 11 9 21 26 12 4 1 4 7 7 5 6 9 14 12 11 5 7 10 15 10 7 10 16 8 14 15 5 5 10 9
42 43 43 38 34 33 35 35 22 16 19 7 5 6 21 24 18 2 3 3 5 8 5 7 8 7 8 10 14 6 8 8 24 29 33 32 25 17 14 8 9 6 5
42 41 37 39 37 32 33 29 35 34 25 27 20 8 4 22 5 5 4 3 8 14 13 5 4 6 8 9 12 13 10 14 16 28 33 32 26 16 4 9 9 8 7
40 37 38 38 38 30 22 22 33 25 32 29 27 25 15 7 4 7 4 2 5 4 7 5 5 5 6 7 8 15 15 16 15 20 24 21 16 15 12 9 6 8 8
39 38 40 43 37 31 38 35 33 17 6 18 23 16 16 16 10 2 5 2 1 2 8 7 5 6 6 7 8 10 22 22 19 18 16 17 13 12 15 16 20 13 8
36 38 38 38 34 37 36 35 32 29 22 9 15 17 14 13 12 7 5 5 5 6 5 3 5 6 7 8 11 11 19 23 20 17 16 13 11 9 9 10 9 16 18
37 35 37 37 35 35 33 32 31 27 25 23 23 19 12 11 16 6 5 8 11 8 9 7 5 8 8 10 17 23 22 21 17 14 12 11 11 12 11 10 10 11 14
36 37 35 35 36 37 35 36 28 26 25 26 26 21 13 8 12 12 18 17 15 15 17 15 16 17 13 13 17 19 18 16 15 14 13 15 13 11 12 13 15 17 17
36 36 35 34 35 34 32 33 32 29 28 28 29 27 21 16 15 13 15 29 22 16 19 23 23 19 15 16 18 20 23 21 18 16 17 17 15 14 14 14 15 15 19
35 35 35 35 34 33 32 31 31 31 31 31 29 29 26 25 23 19 16 18 21 15 19 20 17 16 15 14 13 14 15 17 18 20 23 23 24 20 17 18 22 20 18
35 35 34 34 33 33 32 32 31 31 30 30 29 28 28 26 24 24 23 19 14 9 12 11 6 8 13 16 15 17 18 19 21 22 23 26 26 22 21 21 23 36 33
34 34 34 33 33 33 32 32 32 31 30 30 28 27 27 26 26 25 24 21 19 16 13 12 10 12 15 15 15 17 22 21 24 24 26 28 30 34 29 29 30 32 40
Wind_Direction
263 274 292 305 308 311 314 320 325 329 331 331 330 329 327 325 321 314 307 303 297 296 297 296 293 292 291 290 289 287 285 287 288 295 296 295 292 285 284 279 270 253 241
295 290 290 287 298 303 309 315 320 322 326 327 328 327 325 324 321 316 311 308 303 299 298 297 296 295 294 292 291 285 286 285 287 291 295 292 288 285 275 259 235 234 246
304 300 302 303 304 304 309 313 315 315 318 321 325 325 324 323 320 317 314 309 305 302 300 300 299 299 297 296 295 293 291 291 291 293 295 293 286 272 255 237 236 211 247
313 312 308 303 307 311 311 309 309 310 313 316 319 322 322 322 320 317 316 314 311 310 308 306 303 301 300 299 296 293 291 292 291 288 287 286 274 261 234 224 229 235 252
318 296 294 291 296 308 308 306 309 308 311 317 321 323 322 322 318 315 313 312 309 309 309 309 308 306 307 307 306 303 301 301 300 289 276 274 253 254 233 243 240 239 248
291 277 289 292 299 309 310 310 308 307 316 321 329 318 315 321 320 316 313 312 312 310 313 314 315 320 335 347 352 6 359 344 357 319 278 260 257 230 243 218 226 218 233
335 242 260 303 308 318 306 309 306 311 320 324 331 335 314 323 321 314 311 309 310 313 317 318 320 330 349 1 0 21 58 16 11 27 56 277 229 208 194 195 174 173 219
340 340 341 329 321 321 311 307 311 314 319 320 320 330 319 313 315 303 307 305 304 309 314 313 309 322 334 8 7 21 24 5 31 12 337 65 251 129 131 136 133 134 237
337 334 332 328 325 323 322 322 321 318 318 320 322 323 316 308 300 284 298 295 294 296 303 302 310 312 336 13 2 356 343 323 317 40 86 101 111 130 134 127 132 138 212
331 330 329 327 325 323 322 322 322 321 322 321 321 327 334 250 308 300 283 276 273 281 286 294 303 321 339 326 318 311 36 64 330 283 297 115 129 139 140 143 139 139 215
328 327 327 329 328 327 326 327 325 323 321 316 315 315 308 304 310 283 259 232 218 247 254 251 273 298 309 108 258 271 238 318 313 330 45 127 136 145 153 158 153 148 150
328 328 328 328 329 329 327 326 326 323 317 310 306 312 314 311 240 251 203 180 239 250 229 248 263 269 288 280 199 265 259 271 285 293 294 282 131 142 155 162 161 234 249
330 330 330 331 330 331 330 329 329 323 314 305 303 311 318 325 303 203 177 176 168 244 237 242 220 235 294 281 209 250 260 244 211 202 167 131 129 136 146 150 153 257 259
333 334 334 331 330 332 335 334 332 329 320 307 311 313 306 324 323 321 171 177 176 223 257 253 245 265 286 161 255 228 260 255 221 182 201 197 271 276 146 167 168 223 265
337 337 335 334 333 334 338 338 340 341 332 324 319 319 315 299 316 321 24 180 180 176 256 248 263 275 282 257 219 241 250 257 253 211 256 259 202 158 159 173 223 259 259
337 336 336 339 339 339 339 338 349 351 345 343 236 289 308 296 300 151 116 161 171 158 189 255 260 260 250 247 254 207 237 242 249 239 231 229 237 170 172 179 176 185 197
334 336 342 340 340 342 342 346 290 319 335 313 326 349 353 287 318 149 107 94 145 154 165 185 207 236 251 242 250 248 240 254 259 248 242 245 256 273 196 188 197 215 234
336 342 343 345 339 346 352 285 328 345 293 269 280 285 321 326 130 144 131 25 298 242 259 226 223 209 244 236 212 250 252 259 261 262 261 265 265 270 276 280 249 229 234
339 340 339 333 345 347 326 314 323 9 85 236 285 319 336 301 299 268 158 282 247 235 274 255 236 209 218 209 192 241 256 258 260 262 264 269 273 259 268 274 274 274 249
346 329 328 347 355 350 345 321 322 326 345 76 3 334 347 314 295 285 265 272 280 278 273 235 223 244 214 243 254 254 260 259 261 264 264 261 257 244 217 212 242 273 276
337 343 339 344 360 352 10 320 334 326 334 333 336 5 42 358 304 280 219 265 277 277 275 262 231 259 248 255 264 261 263 264 265 253 249 243 246 220 234 245 253 259 267
346 346 343 339 342 348 358 357 342 348 342 335 337 2 21 29 346 314 275 272 273 276 277 274 274 276 271 257 265 268 269 263 255 250 254 262 258 245 249 257 267 273 276
349 350 347 345 350 342 344 360 357 343 342 340 339 333 341 7 358 333 304 270 275 277 272 268 270 280 287 281 280 272 270 272 269 262 262 263 261 258 262 256 259 263 271
352 351 351 352 355 355 352 352 351 354 356 353 347 347 335 331 326 334 328 302 297 271 281 276 273 269 280 290 297 287 285 283 285 283 278 273 271 271 268 266 269 271 267
4 359 358 358 359 0 360 357 355 355 354 350 349 349 353 352 341 340 332 327 325 318 294 286 290 300 291 291 298 293 288 287 284 284 284 281 278 276 275 270 270 270 275
10 8 6 4 4 4 3 3 2 1 358 357 356 355 355 352 351 352 345 340 330 332 307 324 313 321 310 314 310 300 292 292 286 287 287 285 282 273 276 275 275 272 267